FW5763 Weather Reports


Display with metric or nautical units.
time (UTC)temp
F
wind
direction
speed
MPH
gust
MPH
rain 1hr
in
rain 24hr
in
rain mn
in
humidity
%
barometer
mb
20260901002116 69 183 7.0 11.0 0.00 0.00 0.00 65 1013.7
20260901001116 69 207 2.0 9.0 0.00 0.00 0.00 64 1013.6
20260901000116 70 176 3.0 6.0 0.00 0.00 0.00 64 1013.6
20260831235137 70 194 2.0 7.0 0.00 0.00 0.00 65 1013.7
20260831234116 69 206 1.0 8.0 0.00 0.00 0.00 65 1013.9
20260831233117 69 231 2.0 5.0 0.00 0.00 0.00 66 1014.0
20260831232116 69 233 3.0 7.0 0.00 0.00 0.00 65 1014.0
20260831231117 70 172 4.0 9.0 0.00 0.00 0.00 64 1013.9
20260831230136 69 176 2.0 8.0 0.00 0.00 0.00 66 1014.0
20260831225117 69 168 2.0 6.0 0.00 0.00 0.00 66 1013.9
20260831224116 69 170 5.0 7.0 0.00 0.00 0.00 67 1014.1
20260831223116 68 94 4.0 9.0 0.00 0.00 0.00 67 1014.1
20260831222136 68 205 1.0 7.0 0.00 0.00 0.00 69 1014.2
20260831221117 68 116 3.0 7.0 0.00 0.00 0.00 69 1014.4
20260831220137 67 108 7.0 10.0 0.00 0.00 0.00 69 1014.6
20260831215116 67 178 4.0 9.0 0.00 0.00 0.00 70 1014.8
20260831214116 67 119 3.0 8.0 0.00 0.00 0.00 69 1014.8
20260831213117 67 108 3.0 8.0 0.00 0.00 0.00 71 1015.0
20260831212116 67 193 4.0 9.0 0.00 0.00 0.00 72 1015.0
20260831211116 67 221 6.0 9.0 0.00 0.00 0.00 70 1015.0
20260831210116 67 148 5.0 7.0 0.00 0.00 0.00 70 1015.2
20260831205116 66 177 4.0 9.0 0.00 0.00 0.00 73 1015.2
20260831204116 66 188 4.0 7.0 0.00 0.00 0.00 73 1015.2
20260831203116 65 179 4.0 7.0 0.00 0.00 0.00 73 1015.3
20260831202116 65 211 5.0 7.0 0.00 0.00 0.00 75 1015.4
20260831201116 65 188 5.0 12.0 0.00 0.00 0.00 74 1015.3
20260831200116 65 203 5.0 11.0 0.00 0.00 0.00 73 1015.2
20260831195136 64 210 4.0 7.0 0.00 0.00 0.00 76 1015.3
20260831194116 64 127 5.0 9.0 0.00 0.00 0.00 75 1015.4
20260831193116 63 139 6.0 11.0 0.00 0.00 0.00 77 1015.6
20260831192116 63 129 4.0 9.0 0.00 0.00 0.00 78 1015.8
20260831191116 63 170 4.0 8.0 0.00 0.00 0.00 78 1016.0
20260831190116 63 149 5.0 11.0 0.00 0.00 0.00 77 1015.9
20260831185116 62 155 6.0 9.0 0.00 0.00 0.00 79 1015.8
20260831184116 62 190 4.0 6.0 0.00 0.00 0.00 77 1015.7
20260831183116 62 209 4.0 6.0 0.00 0.00 0.00 77 1015.8
20260831182116 61 188 5.0 7.0 0.00 0.00 0.00 79 1016.0
20260831181116 61 152 5.0 9.0 0.00 0.00 0.00 79 1016.1
20260831180116 61 175 3.0 7.0 0.00 0.00 0.00 79 1016.1
20260831175116 61 205 3.0 6.0 0.00 0.00 0.00 78 1016.0
20260831174116 61 154 4.0 6.0 0.00 0.00 0.00 78 1015.8
20260831173116 61 125 3.0 6.0 0.00 0.00 0.00 79 1015.9
20260831172116 60 188 2.0 4.0 0.00 0.00 0.00 79 1016.0
20260831171116 60 221 2.0 4.0 0.00 0.00 0.00 79 1016.0
20260831170116 60 187 3.0 5.0 0.00 0.00 0.00 79 1015.9
20260831164116 59 265 2.0 3.0 0.00 0.00 0.00 80 1015.7
20260831163116 58 0.0 2.0 0.00 0.00 0.00 81 1015.5
20260831162116 58 78 0.0 2.0 0.00 0.00 0.00 83 1015.5
20260831161116 58 5 0.0 1.0 0.00 0.00 0.00 84 1015.6
20260831160116 57 21 1.0 1.0 0.00 0.00 0.00 85 1015.5
20260831155116 57 0.0 2.0 0.00 0.00 0.00 85 1015.5
20260831154116 57 300 1.0 2.0 0.00 0.00 0.00 86 1015.3
20260831153136 56 246 0.0 1.0 0.00 0.00 0.00 86 1015.2
20260831152116 56 325 0.0 1.0 0.00 0.00 0.00 87 1015.2
20260831151136 56 0.0 1.0 0.00 0.00 0.00 88 1015.3
20260831150116 56 15 0.0 1.0 0.00 0.00 0.00 88 1015.3
20260831145116 55 315 0.0 1.0 0.00 0.00 0.00 88 1015.1
20260831144136 55 256 1.0 1.0 0.00 0.00 0.00 89 1015.1
20260831143116 55 277 1.0 3.0 0.00 0.00 0.00 89 1015.0
20260831142116 55 0.0 0.0 0.00 0.00 0.00 90 1014.9
20260831141116 55 0.0 2.0 0.00 0.00 0.00 90 1014.7
20260831140116 55 12 1.0 1.0 0.00 0.00 0.00 90 1014.6
20260831135116 55 314 1.0 2.0 0.00 0.00 0.00 91 1014.4
20260831134136 55 329 1.0 2.0 0.00 0.00 0.00 91 1014.4
20260831133116 55 8 2.0 3.0 0.00 0.00 0.00 91 1014.4
20260831132116 55 307 2.0 3.0 0.00 0.00 0.00 91 1014.3
20260831131116 55 293 3.0 7.0 0.00 0.00 0.00 91 1014.3
20260831130156 55 300 2.0 4.0 0.00 0.00 0.00 91 1014.2
20260831125116 55 285 2.0 3.0 0.00 0.00 0.00 92 1014.1
20260831124116 55 0.0 0.0 0.00 0.00 0.00 92 1014.1
20260831123116 55 254 2.0 3.0 0.00 0.00 0.00 92 1014.0
20260831122116 55 304 2.0 3.0 0.00 0.00 0.00 92 1014.1
20260831121116 55 238 0.0 1.0 0.00 0.00 0.00 91 1014.0
20260831120156 55 0.0 1.0 0.00 0.00 0.00 91 1014.0
20260831115216 55 244 1.0 2.0 0.00 0.00 0.00 92 1014.0
20260831114116 56 249 1.0 2.0 0.00 0.00 0.00 91 1014.0
20260831113116 56 268 1.0 2.0 0.00 0.00 0.00 91 1014.0
20260831112116 56 265 0.0 1.0 0.00 0.00 0.00 91 1014.0
20260831111116 56 281 0.0 1.0 0.00 0.00 0.00 91 1014.0
20260831110135 56 0.0 1.0 0.00 0.00 0.00 91 1014.1
20260831105116 56 296 2.0 2.0 0.00 0.00 0.00 91 1014.0
20260831104115 56 196 1.0 2.0 0.00 0.00 0.00 91 1014.1
20260831103115 56 190 1.0 3.0 0.00 0.00 0.00 91 1014.1
20260831102115 56 84 2.0 3.0 0.00 0.00 0.00 91 1014.0
20260831101115 56 119 1.0 2.0 0.00 0.00 0.00 91 1013.9
20260831100116 56 108 1.0 3.0 0.00 0.00 0.00 91 1014.0
20260831095116 56 0.0 0.0 0.00 0.00 0.00 91 1013.9
20260831094116 56 0.0 0.0 0.00 0.00 0.00 91 1014.0
20260831093116 56 136 1.0 2.0 0.00 0.00 0.00 91 1014.0
20260831092136 56 221 0.0 1.0 0.00 0.00 0.00 91 1014.1
20260831091135 56 284 2.0 3.0 0.00 0.00 0.00 90 1014.0
20260831090156 56 253 2.0 3.0 0.00 0.00 0.00 90 1014.0
20260831085115 56 333 0.0 3.0 0.00 0.00 0.00 91 1014.0
20260831084115 56 317 2.0 4.0 0.00 0.00 0.00 91 1014.1
20260831083116 56 0.0 0.0 0.00 0.00 0.00 91 1014.2
20260831082115 56 281 2.0 4.0 0.00 0.00 0.00 90 1014.2
20260831081116 56 241 2.0 4.0 0.00 0.00 0.00 90 1014.3
20260831080115 56 266 1.0 2.0 0.00 0.00 0.00 90 1014.3
20260831075115 56 77 1.0 1.0 0.00 0.00 0.00 90 1014.3
20260831074115 56 87 2.0 3.0 0.00 0.00 0.00 90 1014.3
20260831073115 56 151 1.0 2.0 0.00 0.00 0.00 90 1014.4
20260831072115 56 182 1.0 2.0 0.00 0.00 0.00 90 1014.3
20260831071115 56 156 0.0 2.0 0.00 0.00 0.00 90 1014.2
20260831070135 56 182 0.0 1.0 0.00 0.00 0.00 90 1014.2
20260831065116 56 98 2.0 2.0 0.00 0.00 0.00 90 1014.2
20260831064115 56 152 2.0 5.0 0.00 0.00 0.00 90 1014.2
20260831063115 56 133 2.0 3.0 0.00 0.00 0.00 90 1014.3
20260831062115 56 0.0 2.0 0.00 0.00 0.00 90 1014.3
20260831061115 56 88 0.0 2.0 0.00 0.00 0.00 90 1014.3
20260831060115 57 83 2.0 3.0 0.00 0.00 0.00 90 1014.4
20260831055115 57 94 3.0 4.0 0.00 0.00 0.00 90 1014.4
20260831054115 57 131 1.0 6.0 0.00 0.00 0.00 90 1014.5
20260831053115 57 92 4.0 7.0 0.00 0.00 0.00 90 1014.5
20260831052115 57 88 3.0 6.0 0.00 0.00 0.00 90 1014.4
20260831051115 57 118 3.0 4.0 0.00 0.00 0.00 90 1014.4
20260831050115 56 133 2.0 4.0 0.00 0.00 0.00 90 1014.5
20260831045115 56 129 3.0 7.0 0.00 0.00 0.00 90 1014.5
20260831044115 56 94 3.0 6.0 0.00 0.00 0.00 90 1014.5
20260831043135 57 124 4.0 7.0 0.00 0.00 0.00 89 1014.4
20260831042115 57 89 3.0 6.0 0.00 0.00 0.00 89 1014.3
20260831041115 57 95 1.0 2.0 0.00 0.00 0.00 89 1014.2
20260831040115 57 100 4.0 6.0 0.00 0.00 0.00 89 1014.1
20260831035115 57 66 2.0 7.0 0.00 0.00 0.00 89 1014.1
20260831034115 57 108 4.0 8.0 0.00 0.00 0.00 88 1013.9
20260831033115 58 98 10.0 15.0 0.00 0.00 0.00 88 1013.8
20260831032115 58 95 6.0 9.0 0.00 0.00 0.00 87 1013.7
20260831031115 58 84 6.0 9.0 0.00 0.00 0.00 86 1013.6
20260831030215 59 82 6.0 11.0 0.00 0.00 0.00 85 1013.5
20260831025115 60 77 7.0 12.0 0.00 0.00 0.00 83 1013.4
20260831024135 61 84 4.0 9.0 0.00 0.00 0.00 81 1013.3
20260831023115 62 57 3.0 4.0 0.00 0.00 0.00 78 1013.3
20260831022115 62 67 2.0 7.0 0.00 0.00 0.00 77 1013.3
20260831021115 63 114 5.0 7.0 0.00 0.00 0.00 75 1013.4
20260831020115 64 96 6.0 10.0 0.00 0.00 0.00 73 1013.5
20260831015236 64 95 5.0 7.0 0.00 0.00 0.00 72 1013.4
20260831014115 65 110 5.0 9.0 0.00 0.00 0.00 70 1013.3
20260831013115 66 86 6.0 10.0 0.00 0.00 0.00 69 1013.2
20260831012135 67 101 4.0 6.0 0.00 0.00 0.00 67 1013.3
20260831011115 68 93 3.0 6.0 0.00 0.00 0.00 66 1013.4
20260831010115 68 134 2.0 4.0 0.00 0.00 0.00 65 1013.4
20260831005115 68 94 3.0 8.0 0.00 0.00 0.00 64 1013.3
20260831004115 69 97 5.0 8.0 0.00 0.00 0.00 62 1013.3
20260831003115 69 97 4.0 8.0 0.00 0.00 0.00 62 1013.4